Terminal Aerodrome Forecast
Issued by NWS

Home | Current Version | Previous Version | Text Only | Print | Product List | Glossary On
Versions: 1 2 3 4 5 6 7 8 9 10 11 12
000
FTUS41 KPBZ 292320
TAFLBE
TAF
KLBE 292320Z 3000/3024 VRB05KT P6SM SCT040
     FM300600 26005KT P6SM VCSH BKN035
     FM301000 29008KT P6SM BKN040
     FM301600 27008KT P6SM SCT040=

USA.gov is the U.S. government's official web portal to all federal, state and local government web resources and services.